World > North America > United States > Michigan

Erie, Michigan Regional Weather

Lat: 41.79N, Lon: 83.5W
Wx Zone: MIZ083Web Search

If you are on your PC, you can easily pass this page to your phone by scanning the QR Code near the bottom with your camera.

Feedback


°F Click to change Erie hourly weather to Imperial units.Click to change Erie hourly weather to Metric units. °C
Erie Weather Map
UTC Time: 5/9/2021, 05:08
Your Time:

Erie, MI Regional Weather

Expires:202105090600;;821455
ASUS43 KDTX 090501
RWRMI 
MICHIGAN HOURLY REGIONAL WEATHER ROUNDUP
NATIONAL WEATHER SERVICE DETROIT/PONTIAC MI
100 AM EDT SUN MAY 09 2021

NOTE: "FAIR" INDICATES FEW OR NO CLOUDS BELOW 12,000 FEET WITH NO
SIGNIFICANT WEATHER AND/OR OBSTRUCTION TO VISIBILITY.


MIZ047>049-052>055-059>063-066>070-074>076-081>083-090600-
SOUTHEAST LOWER MICHIGAN
  
CITY           SKY/WX    TMP DP  RH WIND       PRES   REMARKS
ADRIAN         CLOUDY    47  35  63 CALM      30.05R                  
ALMA           PTCLDY    37  32  84 CALM      30.06S                  
ANN ARBOR      CLOUDY    42  35  76 CALM      30.05R                  
BAD AXE        CLOUDY    40  34  80 CALM      30.06S                  
CARO           MOCLDY    42  34  71 SE3       30.05S                  
DETROIT CITY   CLOUDY    48  36  63 SE3       30.06S                  
DETROIT        CLOUDY    47  36  65 E3        30.05S                  
FLINT          MOCLDY    41  32  70 CALM      30.06R                  
GROSSE ILE     CLOUDY    47  38  73 E3        30.05S                  
HILLSDALE      CLOUDY    45  35  67 NW5       30.04S                  
HOWELL         CLOUDY    43  31  62 CALM      30.05R                  

CITY           SKY/WX    TMP DP  RH WIND       PRES   REMARKS
JACKSON        CLOUDY    42  32  67 W3        30.05R                  
LAMBERTVILLE   CLOUDY    46  37  72 CALM      30.04S                  
LANSING        MOCLDY    41  34  76 CALM      30.07R                  
LAPEER         MOCLDY    39  37  90 CALM      30.06S                  
MASON          MOCLDY    43  32  65 CALM      30.06R                  
MONROE         CLOUDY    48  41  78 S10       30.04S                  
MT. CLEMENS    MOCLDY    43  43 100 CALM      30.04S                  
PONTIAC        CLOUDY    44  34  67 E3        30.05R                  
PORT HOPE        N/A     40  35  83 S3        30.05F                  
PORT HURON     CLEAR     34  30  86 CALM      30.07S                  
TRI CITIES     PTCLDY    42  30  62 N6        30.06S                  
MIDLAND        PTCLDY    34  32  92 CALM      30.06R                  
TROY           CLOUDY    45  35  68 CALM      30.07S                  
SAGINAW HB     PTCLDY    42  32  69 CALM      30.05S                  
$$

SKY/WX - Weather  TMP - Temperature  DP - Dew Point  RH - Relative Humidity
WIND - Wind Direction/Speed PRES - Barometric Pressure VSB - Visibility
WCI - Wind Chill Index E13G22 Wind - East Wind 13 mph/Gusts of 22 mph